Regional Weather Roundup
Issued by NWS

Home | Current Version | Previous Version | Graphics & Text | Print | Product List | Glossary On
Versions: 1 2 3 4 5 6 7 8 9 10 11 12 13 14 15 16 17 18 19 20 21 22 23 24 25 26 27 28 29 30 31 32 33 34 35 36 37 38 39 40 41 42 43 44 45 46 47 48 49 50
000
ASUS43 KIND 250659
RWRIN

WEATHER ROUNDUP FOR INDIANA
NATIONAL WEATHER SERVICE INDIANAPOLIS IN
300 AM EDT TUE APR 25 2017

NOTE: "FAIR" INDICATES FEW OR NO CLOUDS BELOW 12,000 FEET WITH NO
SIGNIFICANT WEATHER AND/OR OBSTRUCTIONS TO VISIBILITY.

* - STATION DOES NOT REPORT WEATHER SUCH AS PRECIPITATION OR FOG.

+ - STATION NOT QUALITY CONTROLLED BY THE NATIONAL WEATHER SERVICE.
    USE DATA WITH CAUTION...ESPECIALLY DEWPOINT AND RELATIVE
    HUMIDITY OBSERVATIONS.

INZ001>003-010>013-019-020-250800-
NORTHWEST INDIANA

CITY           SKY/WX    TMP DP  RH WIND       PRES   REMARKS
KNOX *+        CLEAR     52  23  32 SE6       29.78R
MONTICELLO +   CLEAR     56  46  69 E5        29.76F

$$

LMZ046-743>745-250800-
SOUTHERN LAKE MICHIGAN

STATION/POSITION TIME  TEMP    WIND        PRES    WAVE
                       AIR SEA DIR/SP/G            HT
                 (UTC) (F)     (DEG/KT/KT) (MB)    (FT)
BURNS HARBOR     0640   59     130/ 11/ 18 1008.1S
MICHIGAN CITY    0630   58     120/ 13/ 16   N/A

$$

INZ004-005-014>016-021>024-250800-
NORTH CENTRAL INDIANA

CITY           SKY/WX    TMP DP  RH WIND       PRES   REMARKS
GOSHEN         CLEAR     50  41  71 E8        29.81S
PERU/GRISSOM   CLEAR     54  49  82 E8        29.78S
SOUTH BEND     CLEAR     52  40  63 SE10      29.81F

$$

INZ006>009-017-018-025>027-250800-
NORTHEAST INDIANA

CITY           SKY/WX    TMP DP  RH WIND       PRES   REMARKS
ANGOLA *+      CLEAR     52  46  82 SE7       29.83S
FORT WAYNE     CLOUDY    53  47  79 SE6       29.82S
KENDALLVILLE + CLOUDY    51  45  79 SE5       29.83S

$$

INZ028-029-035-036-043>045-051>053-250800-
WEST CENTRAL INDIANA

CITY           SKY/WX    TMP DP  RH WIND       PRES   REMARKS
CRAWFORDSVL +  CLEAR     55  51  87 SE7       29.76S
LAFAYETTE      CLEAR     55  50  83 E5        29.76S
TERRE HAUTE    CLEAR     58  49  72 SE6       29.75S

$$

INZ030>032-037>040-046>048-054>057-064-065-250800-
CENTRAL INDIANA

CITY           SKY/WX    TMP DP  RH WIND       PRES   REMARKS
INDIANAPOLIS   CLEAR     56  51  84 E7        29.77S
-EAGLE CREEK   CLEAR     58  50  75 SE3       29.77S
KOKOMO +       CLEAR     54  50  86 E7        29.80S
SHELBYVILLE    CLOUDY    62  51  67 SE5       29.78S

$$

INZ033-034-041-042-049-050-058-059-250800-
EAST CENTRAL INDIANA

CITY           SKY/WX    TMP DP  RH WIND       PRES   REMARKS
MUNCIE         CLOUDY    59  51  75 SE8       29.80S
RICHMOND +     CLEAR     52  48  87 SE9       29.81F

$$

INZ060-061-067>069-081>083-085>088-250800-
SOUTHWEST INDIANA

CITY           SKY/WX    TMP DP  RH WIND       PRES   REMARKS
EVANSVILLE     CLEAR     56  51  84 CALM      29.75S
HUNTINGBURG *+ CLEAR     58  53  84 SE3       29.76S

$$

INZ062-063-066-070>080-084-089>092-250800-
SOUTH CENTRAL AND SOUTHEAST INDIANA

CITY           SKY/WX    TMP DP  RH WIND       PRES   REMARKS
BLOOMINGTON    CLEAR     59  50  72 SE5       29.77S
MADISON *+     CLEAR     57  52  82 CALM      29.80F
SEYMOUR +      MOCLDY    55  50  82 CALM      29.78S

$$





USA.gov is the U.S. government's official web portal to all federal, state and local government web resources and services.